Content
SEND FEEDBACK

Daily
Averages
Monthly
Summary
Canada

ANCIENNE LORETTE, QUEBEC


Home > North America > Canada > Quebec
Elevation: 230 feet     Latitude: 46 48N     Longitude: 071 22W

WEATHER
 
SELECT A DAY
Number of Records: 195,029;   Date Range: 6/30/96 - 9/30/14
 
SHARE

PRINT THIS DATA

[ ← Previous Day ]
WEATHER ALMANAC - NOVEMBER 16, 2013
[ Next Day → ]
[ °C ]   °F
Weather ElementAverageHighLow
Temperature39.7 °F50 °F (1:00 pm)30.2 °F (11:00 pm)
Dewpoint31.2 °F33.8 °F (1:19 am)26.6 °F (11:00 pm)
Humidity72 %93 % (1:19 am)35 % (1:00 pm)
Barometer30.24 in30.29 in (8:00 pm)30.15 in (1:00 am)
Wind Speed3.4 mph10.4 mph (12:00 pm)
Weather ElementAverage
Visibility19.4 mi
Wind DirectionSE (139.7 °)

Weather ElementTotal
Precipitation---
Heating Degree Days24.9 (Base 65)
Averaged from 32 records on November 16, 2013
WEATHER CONDITIONS BREAKOUT
WIND DIRECTION BREAKOUT
WEATHER BY HOUR - NOVEMBER 16, 2013
[ °C ]   °F
Local TimeTemperatureDewpointHumidityBarometerVisibilityWind DirectionWind SpeedGust SpeedPrecipitationEventsConditions
1:00 AM38.0 °F33.0 °F74 %30.15 inCalm
1:00 AM37.4 °F32.0 °F81 %30.16 in10.0 miNW (320°)2.3 mphOvercast
1:19 AM35.6 °F33.8 °F93 %30.17 in10.0 miSW (230°)2.3 mphOvercast
2:00 AM35.6 °F33.8 °F93 %30.17 in10.0 miNorth (10°)3.5 mphOvercast
3:00 AM37.4 °F33.8 °F87 %30.17 in10.0 miNorth (360°)2.3 mphOvercast
4:00 AM38.0 °F33.0 °F77 %30.17 inNNW (330°)1.2 mph
4:00 AM37.4 °F32.0 °F81 %30.17 in15.0 miNorth (10°)2.3 mphOvercast
5:00 AM37.4 °F32.0 °F81 %30.19 in10.0 miNorth (10°)3.5 mphOvercast
6:00 AM35.6 °F32.0 °F87 %30.20 in15.0 miNNE (20°)3.5 mphMostly Cloudy
7:00 AM33.0 °F31.0 °F92 %30.22 inNW (310°)1.2 mph
7:00 AM35.6 °F32.0 °F87 %30.23 in30.0 miCalmMostly Cloudy
8:00 AM37.4 °F33.8 °F87 %30.25 in30.0 miSSE (160°)3.5 mphOvercast
9:00 AM39.2 °F33.8 °F81 %30.26 in30.0 miCalmMostly Cloudy
10:00 AM44.0 °F33.0 °F55 %30.25 inEast (100°)2.3 mph
10:00 AM44.6 °F33.8 °F66 %30.27 in30.0 miVariable2.3 mphMostly Cloudy
11:00 AM48.2 °F32.0 °F54 %30.27 in30.0 miSW (230°)2.3 mphScattered Clouds
12:00 PM48.2 °F30.2 °F50 %30.25 in30.0 miSSW (210°)10.4 mphMostly Cloudy
1:00 PM50.0 °F31.0 °F35 %30.23 inWSW (240°)6.9 mph
1:00 PM50.0 °F30.2 °F47 %30.25 in30.0 miWSW (250°)10.4 mphMostly Cloudy
2:00 PM50.0 °F32.0 °F50 %30.25 in30.0 miWest (270°)5.8 mphMostly Cloudy
3:00 PM50.0 °F30.2 °F47 %30.25 in20.0 miNW (320°)3.5 mphScattered Clouds
4:00 PM46.0 °F30.0 °F41 %30.24 inCalm
4:00 PM48.2 °F30.2 °F50 %30.26 in20.0 miCalmScattered Clouds
5:00 PM41.0 °F30.2 °F65 %30.27 in15.0 miNNW (340°)4.6 mphPartly Cloudy
6:00 PM39.2 °F30.2 °F70 %30.28 in15.0 miNorth (10°)3.5 mphPartly Cloudy
7:00 PM35.0 °F31.0 °F78 %30.27 inNorth2.3 mph
7:00 PM35.6 °F28.4 °F75 %30.28 in15.0 miNorth (10°)4.6 mphClear
8:00 PM33.8 °F28.4 °F81 %30.29 in15.0 miNNE (20°)5.8 mphClear
9:00 PM33.8 °F28.4 °F81 %30.29 in15.0 miNNE (20°)6.9 mphPartly Cloudy
10:00 PM32.0 °F29.0 °F84 %30.27 inNNE (30°)2.3 mph
10:00 PM32.0 °F28.4 °F87 %30.28 in15.0 miNNE (20°)4.6 mphPartly Cloudy
11:00 PM30.2 °F26.6 °F86 %30.28 in15.0 miNorth (360°)5.8 mphScattered Clouds
Hourly data recorded from CYQB, located miles away from Ancienne Lorette, Quebec







STORIES FROM OUR PARTNERS